ETH802 HTDA-HAAB

Flight info

Callsign ETH802
Flight time 2h 26m
Altitude 37000
Route TIDUR1D UVUKO UL431 MOV UN301 ALEMU/N0457F380 UT129 IMKIT IMKIT1A
Aircraft B38M/M-SDE1FGHILORVWXY/HB1

Departure

Time 2026-04-25 09:12
Airport Julius Nyerere International Airport (HTDA)

Arrival

Time 2026-04-25 11:38
Airport Addis Ababa Bole International Airport (HAAB)
Time Latitude Longitude Altitude Speed Heading
2026-04-25 09:04 -6.87425 39.20323 195 ft 1 kts 80°
2026-04-25 09:07 -6.87424 39.20324 185 ft 1 kts 80°
2026-04-25 09:07 -6.87419 39.20358 184 ft 10 kts 80°
2026-04-25 09:08 -6.87387 39.20439 184 ft 14 kts 47°
2026-04-25 09:08 -6.87311 39.20515 183 ft 16 kts 45°
2026-04-25 09:08 -6.87225 39.20600 182 ft 18 kts 45°
2026-04-25 09:08 -6.87132 39.20695 182 ft 19 kts 45°
2026-04-25 09:09 -6.87034 39.20795 181 ft 21 kts 45°
2026-04-25 09:09 -6.86924 39.20902 180 ft 23 kts 45°
2026-04-25 09:09 -6.86809 39.21021 180 ft 24 kts 46°
2026-04-25 09:09 -6.86687 39.21147 180 ft 26 kts 45°
2026-04-25 09:10 -6.86557 39.21280 179 ft 26 kts 46°
2026-04-25 09:10 -6.86438 39.21400 178 ft 24 kts 44°
2026-04-25 09:10 -6.86333 39.21509 178 ft 18 kts 56°
2026-04-25 09:10 -6.86318 39.21615 176 ft 14 kts 110°
2026-04-25 09:11 -6.86422 39.21646 176 ft 8 kts 225°
2026-04-25 09:11 -6.86524 39.21543 177 ft 50 kts 224°
2026-04-25 09:11 -6.86963 39.21107 179 ft 125 kts 224°
2026-04-25 09:12 -6.87732 39.20344 252 ft 180 kts 224°
2026-04-25 09:12 -6.88671 39.19404 958 ft 198 kts 223°
2026-04-25 09:12 -6.89636 39.18410 1831 ft 204 kts 224°
2026-04-25 09:12 -6.90654 39.17333 2262 ft 218 kts 224°
2026-04-25 09:13 -6.91749 39.16202 2716 ft 230 kts 219°
2026-04-25 09:13 -6.93173 39.15559 3175 ft 229 kts 181°
2026-04-25 09:13 -6.94703 39.15934 3679 ft 232 kts 150°
2026-04-25 09:13 -6.95900 39.17049 4184 ft 240 kts 123°
2026-04-25 09:14 -6.96517 39.18619 4713 ft 245 kts 111°
2026-04-25 09:14 -6.97133 39.20216 5231 ft 245 kts 114°
2026-04-25 09:14 -6.97783 39.21849 5730 ft 259 kts 113°
2026-04-25 09:14 -6.98314 39.23605 6223 ft 268 kts 95°
2026-04-25 09:15 -6.97934 39.25450 6733 ft 277 kts 63°
2026-04-25 09:15 -6.96647 39.26903 7247 ft 285 kts 37°
2026-04-25 09:15 -6.95483 39.27531 7583 ft 289 kts 21°
2026-04-25 09:15 -6.92845 39.28159 8315 ft 294 kts 14°
2026-04-25 09:16 -6.90847 39.28615 8878 ft 296 kts 15°
2026-04-25 09:16 -6.88833 39.29081 9439 ft 298 kts 15°
2026-04-25 09:16 -6.86814 39.29552 9990 ft 299 kts 15°
2026-04-25 09:16 -6.84752 39.30038 10462 ft 312 kts 15°
2026-04-25 09:17 -6.80336 39.31110 11567 ft 336 kts 15°
2026-04-25 09:17 -6.78070 39.31647 12451 ft 335 kts 14°
2026-04-25 09:17 -6.75784 39.32181 13211 ft 339 kts 14°
2026-04-25 09:18 -6.73477 39.32721 13958 ft 342 kts 14°
2026-04-25 09:18 -6.71149 39.33264 14608 ft 345 kts 14°
2026-04-25 09:18 -6.68805 39.33811 15253 ft 347 kts 14°
2026-04-25 09:18 -6.66442 39.34362 15891 ft 350 kts 14°
2026-04-25 09:19 -6.64063 39.34915 16528 ft 353 kts 14°
2026-04-25 09:19 -6.61660 39.35475 17129 ft 355 kts 14°
2026-04-25 09:19 -6.59249 39.36035 17717 ft 358 kts 14°
2026-04-25 09:19 -6.56807 39.36604 18287 ft 361 kts 13°
2026-04-25 09:20 -6.54347 39.37177 18777 ft 364 kts 14°
2026-04-25 09:20 -6.51867 39.37753 19282 ft 366 kts 14°
2026-04-25 09:20 -6.49375 39.38332 19757 ft 369 kts 14°
2026-04-25 09:20 -6.46866 39.38916 20235 ft 371 kts 14°
2026-04-25 09:21 -6.44340 39.39503 20720 ft 373 kts 14°
2026-04-25 09:21 -6.41802 39.40092 21176 ft 376 kts 14°
2026-04-25 09:21 -6.39246 39.40686 21641 ft 378 kts 14°
2026-04-25 09:21 -6.36679 39.41282 22107 ft 380 kts 14°
2026-04-25 09:22 -6.34094 39.41882 22554 ft 382 kts 14°
2026-04-25 09:22 -6.31492 39.42486 22998 ft 385 kts 14°
2026-04-25 09:22 -6.28880 39.43092 23436 ft 387 kts 14°
2026-04-25 09:22 -6.26247 39.43701 23808 ft 389 kts 14°
2026-04-25 09:23 -6.23595 39.44316 24135 ft 392 kts 14°
2026-04-25 09:23 -6.20928 39.44934 24460 ft 395 kts 14°
2026-04-25 09:23 -6.18248 39.45555 24801 ft 397 kts 14°
2026-04-25 09:23 -6.15579 39.46173 25124 ft 400 kts 14°
2026-04-25 09:24 -6.12859 39.46803 25474 ft 402 kts 13°
2026-04-25 09:24 -6.10089 39.47444 25808 ft 405 kts 13°
2026-04-25 09:24 -6.07369 39.48074 26135 ft 407 kts 13°
2026-04-25 09:24 -6.04600 39.48715 26470 ft 409 kts 13°
2026-04-25 09:25 -6.01806 39.49322 26779 ft 412 kts
2026-04-25 09:25 -5.98947 39.49420 27121 ft 413 kts
2026-04-25 09:25 -5.96056 39.49445 27403 ft 417 kts
2026-04-25 09:25 -5.93150 39.49469 27707 ft 419 kts
2026-04-25 09:26 -5.90230 39.49486 28024 ft 421 kts
2026-04-25 09:26 -5.87289 39.49502 28336 ft 424 kts
2026-04-25 09:26 -5.84335 39.49517 28626 ft 426 kts 360°
2026-04-25 09:26 -5.81367 39.49531 28924 ft 428 kts 360°
2026-04-25 09:27 -5.78380 39.49547 29204 ft 430 kts 360°
2026-04-25 09:27 -5.75378 39.49562 29464 ft 433 kts 359°
2026-04-25 09:27 -5.72365 39.49577 29725 ft 435 kts 359°
2026-04-25 09:27 -5.69323 39.49593 29994 ft 437 kts 359°
2026-04-25 09:28 -5.66276 39.49608 30213 ft 439 kts 359°
2026-04-25 09:28 -5.63211 39.49624 30455 ft 441 kts 359°
2026-04-25 09:28 -5.60147 39.49639 30706 ft 442 kts 359°
2026-04-25 09:28 -5.57066 39.49655 30949 ft 443 kts 359°
2026-04-25 09:29 -5.53979 39.49670 31195 ft 444 kts 359°
2026-04-25 09:29 -5.50889 39.49686 31438 ft 446 kts 360°
2026-04-25 09:29 -5.47780 39.49701 31668 ft 447 kts 360°
2026-04-25 09:29 -5.44662 39.49717 31902 ft 448 kts 360°
2026-04-25 09:30 -5.41536 39.49733 32127 ft 450 kts 360°
2026-04-25 09:30 -5.38447 39.49748 32349 ft 451 kts 360°
2026-04-25 09:30 -5.35302 39.49764 32577 ft 452 kts 360°
2026-04-25 09:30 -5.32153 39.49780 32792 ft 454 kts 360°
2026-04-25 09:31 -5.28990 39.49796 33012 ft 455 kts 360°
2026-04-25 09:31 -5.26846 39.49807 33158 ft 456 kts 360°
2026-04-25 09:31 -5.22641 39.49828 33489 ft 456 kts 359°
2026-04-25 09:31 -5.19468 39.49844 33808 ft 455 kts 360°
2026-04-25 09:32 -5.16304 39.49860 34108 ft 454 kts 360°
2026-04-25 09:32 -5.13155 39.49875 34401 ft 452 kts 360°
2026-04-25 09:32 -5.10011 39.49891 34668 ft 451 kts 360°
2026-04-25 09:32 -5.06875 39.49907 34918 ft 450 kts 360°
2026-04-25 09:33 -5.03748 39.49923 35169 ft 449 kts 360°
2026-04-25 09:33 -5.00620 39.49938 35415 ft 449 kts 360°
2026-04-25 09:33 -4.97505 39.49954 35668 ft 448 kts 360°
2026-04-25 09:33 -4.94389 39.49970 35906 ft 447 kts 360°
2026-04-25 09:34 -4.91288 39.49985 36141 ft 446 kts 360°
2026-04-25 09:34 -4.88183 39.50001 36379 ft 445 kts 360°
2026-04-25 09:34 -4.85090 39.50016 36603 ft 444 kts 360°
2026-04-25 09:34 -4.83039 39.50027 36750 ft 444 kts
2026-04-25 09:35 -4.79949 39.50042 36928 ft 444 kts
2026-04-25 09:35 -4.73796 39.50073 36951 ft 441 kts
2026-04-25 09:36 -4.67693 39.50584 36961 ft 441 kts 10°
2026-04-25 09:36 -4.61652 39.51711 36953 ft 442 kts 10°
2026-04-25 09:37 -4.55599 39.52847 36946 ft 442 kts 10°
2026-04-25 09:37 -4.49550 39.53985 36950 ft 442 kts 10°
2026-04-25 09:38 -4.43504 39.55123 36948 ft 442 kts 10°
2026-04-25 09:38 -4.37448 39.56263 36949 ft 442 kts 10°
2026-04-25 09:39 -4.31399 39.57402 36943 ft 442 kts
2026-04-25 09:39 -4.25344 39.58540 36942 ft 442 kts
2026-04-25 09:40 -4.16311 39.60240 36943 ft 443 kts
2026-04-25 09:40 -4.10259 39.61378 36940 ft 443 kts
2026-04-25 09:41 -4.04203 39.62517 36939 ft 443 kts
2026-04-25 09:41 -3.98147 39.63655 36938 ft 443 kts
2026-04-25 09:42 -3.92050 39.64465 36948 ft 442 kts
2026-04-25 09:42 -3.85916 39.64945 36939 ft 442 kts
2026-04-25 09:43 -3.79782 39.65408 36943 ft 442 kts
2026-04-25 09:43 -3.73651 39.65869 36945 ft 442 kts
2026-04-25 09:44 -3.67517 39.66331 36943 ft 441 kts
2026-04-25 09:44 -3.61394 39.66791 36944 ft 441 kts
2026-04-25 09:45 -3.55270 39.67252 36940 ft 441 kts
2026-04-25 09:45 -3.49140 39.67713 36938 ft 442 kts
2026-04-25 09:46 -3.43023 39.68172 36935 ft 441 kts
2026-04-25 09:46 -3.36884 39.68634 36932 ft 442 kts
2026-04-25 09:47 -3.30756 39.69095 36934 ft 442 kts
2026-04-25 09:47 -3.24626 39.69555 36932 ft 442 kts
2026-04-25 09:48 -3.18488 39.70016 36929 ft 442 kts
2026-04-25 09:48 -3.12352 39.70477 36927 ft 443 kts
2026-04-25 09:49 -3.06208 39.70939 36929 ft 443 kts
2026-04-25 09:49 -3.00067 39.71400 36925 ft 443 kts
2026-04-25 09:50 -2.93914 39.71862 36922 ft 443 kts
2026-04-25 09:50 -2.87762 39.72324 36918 ft 443 kts
2026-04-25 09:51 -2.81605 39.72786 36917 ft 444 kts
2026-04-25 09:51 -2.75450 39.73248 36915 ft 444 kts
2026-04-25 09:52 -2.69288 39.73711 36917 ft 444 kts
2026-04-25 09:52 -2.63164 39.74170 36914 ft 444 kts
2026-04-25 09:53 -2.56999 39.74598 36913 ft 444 kts
2026-04-25 09:53 -2.50829 39.75028 36914 ft 444 kts
2026-04-25 09:54 -2.44666 39.75458 36912 ft 444 kts
2026-04-25 09:54 -2.38509 39.75888 36907 ft 444 kts
2026-04-25 09:55 -2.32355 39.76317 36906 ft 443 kts
2026-04-25 09:55 -2.26198 39.76746 36907 ft 443 kts
2026-04-25 09:56 -2.20046 39.77175 36903 ft 443 kts
2026-04-25 09:56 -2.13898 39.77604 36904 ft 443 kts
2026-04-25 09:57 -2.07753 39.78033 36903 ft 443 kts
2026-04-25 09:57 -2.01605 39.78461 36903 ft 443 kts
2026-04-25 09:58 -1.95460 39.78889 36900 ft 442 kts
2026-04-25 09:58 -1.89319 39.79318 36898 ft 442 kts
2026-04-25 09:59 -1.83181 39.79746 36900 ft 442 kts
2026-04-25 09:59 -1.77036 39.80163 36902 ft 443 kts
2026-04-25 10:00 -1.70920 39.80563 36899 ft 443 kts
2026-04-25 10:00 -1.64773 39.80967 36898 ft 443 kts
2026-04-25 10:01 -1.58629 39.81370 36899 ft 443 kts
2026-04-25 10:01 -1.52470 39.81775 36893 ft 443 kts
2026-04-25 10:02 -1.46319 39.82178 36898 ft 443 kts
2026-04-25 10:02 -1.40164 39.82582 36903 ft 443 kts
2026-04-25 10:03 -1.34008 39.82986 36897 ft 443 kts
2026-04-25 10:03 -1.27852 39.83390 36894 ft 443 kts
2026-04-25 10:04 -1.21692 39.83794 36893 ft 444 kts
2026-04-25 10:04 -1.15530 39.84198 36896 ft 444 kts
2026-04-25 10:05 -1.09369 39.84603 36897 ft 444 kts
2026-04-25 10:05 -1.03204 39.85007 36894 ft 444 kts
2026-04-25 10:06 -0.97035 39.85412 36895 ft 444 kts
2026-04-25 10:06 -0.90869 39.85816 36890 ft 444 kts
2026-04-25 10:07 -0.84699 39.86221 36895 ft 444 kts
2026-04-25 10:07 -0.78530 39.86626 36889 ft 444 kts
2026-04-25 10:08 -0.72361 39.87031 36890 ft 444 kts
2026-04-25 10:08 -0.66233 39.87432 36894 ft 444 kts
2026-04-25 10:09 -0.60066 39.87838 36896 ft 444 kts
2026-04-25 10:09 -0.53902 39.88242 36897 ft 444 kts
2026-04-25 10:10 -0.47731 39.88646 36899 ft 444 kts
2026-04-25 10:10 -0.41569 39.89050 36895 ft 444 kts
2026-04-25 10:11 -0.35405 39.89455 36892 ft 444 kts
2026-04-25 10:11 -0.29255 39.89960 36891 ft 444 kts
2026-04-25 10:12 -0.23095 39.90515 36881 ft 444 kts
2026-04-25 10:13 -0.13867 39.91338 36879 ft 444 kts
2026-04-25 10:13 -0.07716 39.91887 36877 ft 444 kts
2026-04-25 10:14 -0.01563 39.92435 36879 ft 444 kts
2026-04-25 10:14 0.04579 39.92983 36879 ft 443 kts
2026-04-25 10:15 0.10729 39.93531 36875 ft 444 kts
2026-04-25 10:15 0.16883 39.94080 36873 ft 444 kts
2026-04-25 10:16 0.23040 39.94628 36868 ft 444 kts
2026-04-25 10:16 0.29200 39.95178 36876 ft 444 kts
2026-04-25 10:17 0.35355 39.95726 36875 ft 444 kts
2026-04-25 10:17 0.41511 39.96275 36868 ft 444 kts
2026-04-25 10:18 0.47672 39.96824 36873 ft 444 kts
2026-04-25 10:18 0.53831 39.97373 36872 ft 444 kts
2026-04-25 10:19 0.59998 39.97923 36877 ft 445 kts
2026-04-25 10:19 0.66115 39.98468 36873 ft 445 kts
2026-04-25 10:20 0.72276 39.99018 36873 ft 445 kts
2026-04-25 10:20 0.78447 39.99568 36875 ft 445 kts
2026-04-25 10:21 0.84615 40.00118 36873 ft 445 kts
2026-04-25 10:21 0.90783 40.00668 36872 ft 445 kts
2026-04-25 10:22 0.96956 40.01220 36873 ft 446 kts
2026-04-25 10:22 1.03131 40.01778 36873 ft 445 kts
2026-04-25 10:23 1.08306 40.02245 36873 ft 446 kts
2026-04-25 10:23 1.14482 40.02803 36875 ft 446 kts
2026-04-25 10:24 1.20669 40.03362 36877 ft 446 kts
2026-04-25 10:24 1.26855 40.03920 36876 ft 446 kts
2026-04-25 10:25 1.33040 40.04479 36876 ft 447 kts
2026-04-25 10:25 1.39186 40.05035 36879 ft 447 kts
2026-04-25 10:26 1.45420 40.05598 36887 ft 447 kts
2026-04-25 10:26 1.51570 40.06153 36897 ft 447 kts
2026-04-25 10:27 1.57762 40.06713 36903 ft 447 kts
2026-04-25 10:27 1.63953 40.07272 36910 ft 447 kts
2026-04-25 10:28 1.70148 40.07832 36912 ft 447 kts
2026-04-25 10:28 1.76334 40.07885 36913 ft 444 kts 348°
2026-04-25 10:29 1.82440 40.06838 36918 ft 446 kts 350°
2026-04-25 10:29 1.88566 40.05765 36906 ft 447 kts 349°
2026-04-25 10:30 1.94679 40.04678 36899 ft 447 kts 349°
2026-04-25 10:30 2.00807 40.03585 36895 ft 447 kts 349°
2026-04-25 10:31 2.06935 40.02493 36887 ft 447 kts 349°
2026-04-25 10:31 2.13061 40.01401 36890 ft 448 kts 349°
2026-04-25 10:32 2.19201 40.00306 36892 ft 448 kts 349°
2026-04-25 10:32 2.25335 39.99213 36891 ft 448 kts 349°
2026-04-25 10:33 2.31477 39.98117 36895 ft 448 kts 349°
2026-04-25 10:33 2.33370 39.97779 36894 ft 449 kts 349°
2026-04-25 10:35 2.35074 39.97476 36896 ft 449 kts 349°
2026-04-25 10:35 2.41224 39.96379 36897 ft 449 kts 349°
2026-04-25 10:36 2.47372 39.95282 36900 ft 449 kts 349°
2026-04-25 10:36 2.53518 39.94186 36901 ft 449 kts 349°
2026-04-25 10:37 2.59660 39.93053 36900 ft 449 kts 348°
2026-04-25 10:37 2.65796 39.91894 36902 ft 449 kts 348°
2026-04-25 10:38 2.71934 39.90737 36906 ft 449 kts 348°
2026-04-25 10:38 2.78073 39.89579 36906 ft 449 kts 348°
2026-04-25 10:39 2.84207 39.88423 36909 ft 448 kts 348°
2026-04-25 10:39 2.90335 39.87267 36910 ft 448 kts 348°
2026-04-25 10:40 2.96477 39.86108 36912 ft 451 kts 350°
2026-04-25 10:40 3.02667 39.84941 36913 ft 453 kts 350°
2026-04-25 10:41 3.08864 39.83772 36918 ft 453 kts 350°
2026-04-25 10:41 3.15066 39.82602 36925 ft 453 kts 350°
2026-04-25 10:42 3.21224 39.81440 36923 ft 453 kts 350°
2026-04-25 10:42 3.27426 39.80270 36925 ft 454 kts 350°
2026-04-25 10:43 3.33632 39.79099 36928 ft 454 kts 350°
2026-04-25 10:43 3.39841 39.77927 36931 ft 454 kts 350°
2026-04-25 10:44 3.46058 39.76753 36933 ft 455 kts 350°
2026-04-25 10:44 3.52276 39.75579 36936 ft 455 kts 350°
2026-04-25 10:45 3.58500 39.74404 36934 ft 455 kts 350°
2026-04-25 10:45 3.64724 39.73228 36936 ft 455 kts 350°
2026-04-25 10:46 3.70955 39.72051 36936 ft 455 kts 350°
2026-04-25 10:46 3.77179 39.70876 36938 ft 455 kts 350°
2026-04-25 10:47 3.83413 39.69698 36936 ft 455 kts 350°
2026-04-25 10:47 3.89640 39.68521 36937 ft 455 kts 351°
2026-04-25 10:48 3.95861 39.67345 36937 ft 455 kts 351°
2026-04-25 10:48 4.02101 39.66229 36936 ft 455 kts 352°
2026-04-25 10:49 4.08352 39.65187 36938 ft 455 kts 352°
2026-04-25 10:49 4.14607 39.64136 36935 ft 456 kts 352°
2026-04-25 10:50 4.20860 39.63085 36931 ft 456 kts 352°
2026-04-25 10:50 4.27112 39.62033 36930 ft 456 kts 352°
2026-04-25 10:51 4.33365 39.60981 36931 ft 456 kts 352°
2026-04-25 10:51 4.39618 39.59929 36925 ft 455 kts 352°
2026-04-25 10:52 4.45865 39.58878 36925 ft 455 kts 352°
2026-04-25 10:52 4.52109 39.57827 36924 ft 455 kts 352°
2026-04-25 10:53 4.58351 39.56776 36920 ft 455 kts 352°
2026-04-25 10:53 4.64547 39.55733 36918 ft 454 kts 352°
2026-04-25 10:54 4.70779 39.54683 36918 ft 454 kts 352°
2026-04-25 10:54 4.77011 39.53634 36918 ft 454 kts 352°
2026-04-25 10:55 4.83238 39.52585 36919 ft 453 kts 352°
2026-04-25 10:55 4.89455 39.51537 36921 ft 453 kts 352°
2026-04-25 10:56 4.95670 39.50490 36925 ft 453 kts 351°
2026-04-25 10:56 5.01881 39.49443 36933 ft 452 kts 351°
2026-04-25 10:57 5.08088 39.48397 36935 ft 452 kts 351°
2026-04-25 10:57 5.14284 39.47352 36941 ft 451 kts 351°
2026-04-25 10:58 5.20476 39.46307 36947 ft 451 kts 352°
2026-04-25 10:58 5.26656 39.45265 36947 ft 450 kts 352°
2026-04-25 10:59 5.32832 39.44223 36946 ft 450 kts 351°
2026-04-25 10:59 5.39005 39.43181 36946 ft 449 kts 351°
2026-04-25 11:00 5.45171 39.42140 36949 ft 449 kts 351°
2026-04-25 11:00 5.51328 39.41101 36951 ft 449 kts 351°
2026-04-25 11:01 5.57443 39.40068 36955 ft 448 kts 351°
2026-04-25 11:01 5.63587 39.39028 36948 ft 448 kts 350°
2026-04-25 11:01 5.66564 39.38121 36958 ft 448 kts 336°
2026-04-25 11:02 5.69422 39.36857 36947 ft 449 kts 338°
2026-04-25 11:02 5.75164 39.34362 36963 ft 449 kts 338°
2026-04-25 11:03 5.80886 39.31837 36959 ft 449 kts 337°
2026-04-25 11:03 5.86602 39.29309 36964 ft 449 kts 337°
2026-04-25 11:04 5.92321 39.26779 36964 ft 449 kts 337°
2026-04-25 11:04 5.98033 39.24252 36966 ft 449 kts 337°
2026-04-25 11:05 6.03747 39.21723 36967 ft 449 kts 337°
2026-04-25 11:05 6.09464 39.19192 36974 ft 449 kts 337°
2026-04-25 11:06 6.15180 39.16661 36980 ft 449 kts 337°
2026-04-25 11:06 6.20894 39.14130 36981 ft 449 kts 337°
2026-04-25 11:07 6.26570 39.11615 36986 ft 449 kts 337°
2026-04-25 11:07 6.32322 39.09066 36995 ft 449 kts 337°
2026-04-25 11:08 6.37996 39.06552 37008 ft 449 kts 337°
2026-04-25 11:08 6.43705 39.04021 37008 ft 448 kts 337°
2026-04-25 11:09 6.49406 39.01493 37011 ft 448 kts 337°
2026-04-25 11:09 6.55104 38.98966 37017 ft 448 kts 336°
2026-04-25 11:10 6.60812 38.96433 37017 ft 448 kts 336°
2026-04-25 11:10 6.66510 38.93904 37016 ft 448 kts 336°
2026-04-25 11:11 6.72209 38.91375 37020 ft 448 kts 336°
2026-04-25 11:11 6.77918 38.88840 37011 ft 448 kts 336°
2026-04-25 11:12 6.82661 38.86734 37009 ft 449 kts 336°
2026-04-25 11:12 6.88382 38.84193 37009 ft 449 kts 336°
2026-04-25 11:13 6.94098 38.81653 37007 ft 449 kts 336°
2026-04-25 11:13 6.99822 38.79108 37003 ft 450 kts 336°
2026-04-25 11:14 7.05545 38.76565 36994 ft 450 kts 336°
2026-04-25 11:14 7.11274 38.74017 36991 ft 450 kts 336°
2026-04-25 11:15 7.17002 38.71469 36986 ft 450 kts 336°
2026-04-25 11:15 7.22725 38.68923 36979 ft 450 kts 336°
2026-04-25 11:16 7.31315 38.65100 36963 ft 450 kts 336°
2026-04-25 11:16 7.37044 38.62549 36905 ft 451 kts 336°
2026-04-25 11:17 7.39890 38.61281 36756 ft 444 kts 336°
2026-04-25 11:17 7.42693 38.60033 36413 ft 438 kts 336°
2026-04-25 11:17 7.45469 38.58797 35906 ft 435 kts 336°
2026-04-25 11:17 7.48230 38.57567 35384 ft 433 kts 336°
2026-04-25 11:18 7.50977 38.56342 34898 ft 431 kts 336°
2026-04-25 11:18 7.53707 38.55126 34421 ft 428 kts 336°
2026-04-25 11:18 7.56428 38.53913 33945 ft 426 kts 337°
2026-04-25 11:18 7.59135 38.52706 33380 ft 425 kts 337°
2026-04-25 11:19 7.61830 38.51505 32896 ft 422 kts 337°
2026-04-25 11:19 7.64504 38.50312 32428 ft 419 kts 337°
2026-04-25 11:19 7.67159 38.49128 31956 ft 416 kts 337°
2026-04-25 11:19 7.69761 38.47967 31497 ft 413 kts 336°
2026-04-25 11:20 7.72379 38.46799 31038 ft 410 kts 336°
2026-04-25 11:20 7.74982 38.45638 30582 ft 408 kts 336°
2026-04-25 11:20 7.77569 38.44484 30128 ft 406 kts 336°
2026-04-25 11:20 7.80152 38.43332 29616 ft 404 kts 336°
2026-04-25 11:21 7.82714 38.42189 29114 ft 402 kts 336°
2026-04-25 11:21 7.85260 38.41052 28665 ft 398 kts 336°
2026-04-25 11:21 7.87785 38.39925 28232 ft 395 kts 337°
2026-04-25 11:21 7.90287 38.38808 27791 ft 392 kts 337°
2026-04-25 11:22 7.92776 38.37696 27355 ft 390 kts 337°
2026-04-25 11:22 7.94415 38.36965 27070 ft 388 kts 337°
2026-04-25 11:22 7.97706 38.35495 26487 ft 385 kts 337°
2026-04-25 11:22 8.00152 38.34402 26054 ft 384 kts 337°
2026-04-25 11:23 8.02584 38.33315 25645 ft 381 kts 338°
2026-04-25 11:23 8.05005 38.32234 25244 ft 379 kts 338°
2026-04-25 11:23 8.07411 38.31158 24833 ft 378 kts 338°
2026-04-25 11:23 8.09811 38.30086 24412 ft 377 kts 338°
2026-04-25 11:24 8.12207 38.29014 23995 ft 376 kts 338°
2026-04-25 11:24 8.14601 38.27946 23572 ft 376 kts 339°
2026-04-25 11:24 8.17103 38.27231 22974 ft 373 kts 357°
2026-04-25 11:24 8.19650 38.27394 22545 ft 364 kts 17°
2026-04-25 11:25 8.21955 38.28356 22181 ft 355 kts 34°
2026-04-25 11:25 8.23837 38.29914 21801 ft 348 kts 49°
2026-04-25 11:25 8.25462 38.31702 21392 ft 345 kts 42°
2026-04-25 11:25 8.27479 38.33005 20993 ft 345 kts 26°
2026-04-25 11:26 8.29668 38.33976 20605 ft 342 kts 25°
2026-04-25 11:26 8.31855 38.34911 20213 ft 340 kts 25°
2026-04-25 11:26 8.34035 38.35820 19845 ft 338 kts 25°
2026-04-25 11:26 8.36171 38.36698 19488 ft 334 kts 25°
2026-04-25 11:27 8.38317 38.37570 19147 ft 331 kts 24°
2026-04-25 11:27 8.40449 38.38434 18794 ft 330 kts 25°
2026-04-25 11:27 8.42575 38.39291 18453 ft 328 kts 24°
2026-04-25 11:27 8.44008 38.39870 18214 ft 327 kts 25°
2026-04-25 11:28 8.46803 38.40997 17685 ft 326 kts 25°
2026-04-25 11:28 8.48899 38.41842 17301 ft 324 kts 24°
2026-04-25 11:28 8.50984 38.42683 16913 ft 321 kts 25°
2026-04-25 11:28 8.53052 38.43518 16533 ft 319 kts 25°
2026-04-25 11:29 8.55104 38.44345 16158 ft 317 kts 25°
2026-04-25 11:29 8.57144 38.45168 15782 ft 314 kts 25°
2026-04-25 11:29 8.59167 38.45984 15413 ft 312 kts 25°
2026-04-25 11:29 8.61173 38.46794 15052 ft 310 kts 25°
2026-04-25 11:30 8.63169 38.47600 14696 ft 307 kts 25°
2026-04-25 11:30 8.65149 38.48399 14338 ft 305 kts 24°
2026-04-25 11:30 8.67112 38.49192 13988 ft 303 kts 24°
2026-04-25 11:30 8.69054 38.49999 13622 ft 300 kts 28°
2026-04-25 11:31 8.70881 38.50992 13237 ft 297 kts 31°
2026-04-25 11:31 8.72680 38.51975 12856 ft 289 kts 30°
2026-04-25 11:31 8.74422 38.52917 12555 ft 277 kts 31°
2026-04-25 11:31 8.76087 38.53810 12294 ft 265 kts 31°
2026-04-25 11:32 8.77679 38.54661 12090 ft 252 kts 31°
2026-04-25 11:32 8.79181 38.55461 12017 ft 237 kts 31°
2026-04-25 11:32 8.80617 38.56226 11860 ft 231 kts 31°
2026-04-25 11:32 8.82047 38.56990 11603 ft 235 kts 32°
2026-04-25 11:33 8.83370 38.57945 11353 ft 233 kts 43°
2026-04-25 11:33 8.84607 38.58992 11159 ft 229 kts 43°
2026-04-25 11:33 8.85814 38.60008 10971 ft 223 kts 43°
2026-04-25 11:33 8.86971 38.60965 10817 ft 213 kts 40°
2026-04-25 11:34 8.88155 38.61843 10641 ft 204 kts 40°
2026-04-25 11:34 8.89270 38.62669 10441 ft 199 kts 40°
2026-04-25 11:34 8.90385 38.63496 10255 ft 199 kts 40°
2026-04-25 11:34 8.91500 38.64326 10068 ft 200 kts 40°
2026-04-25 11:35 8.92513 38.65262 9860 ft 194 kts 60°
2026-04-25 11:35 8.93158 38.66445 9691 ft 192 kts 64°
2026-04-25 11:35 8.93767 38.67608 9502 ft 180 kts 65°
2026-04-25 11:35 8.94322 38.68660 9318 ft 162 kts 64°
2026-04-25 11:36 8.94728 38.69706 9141 ft 159 kts 76°
2026-04-25 11:36 8.95029 38.70785 8956 ft 159 kts 75°
2026-04-25 11:36 8.95341 38.71862 8768 ft 159 kts 75°
2026-04-25 11:36 8.95652 38.72935 8620 ft 160 kts 74°
2026-04-25 11:37 8.95970 38.74018 8517 ft 161 kts 76°
2026-04-25 11:37 8.96284 38.75100 8397 ft 160 kts 76°
2026-04-25 11:37 8.96602 38.76189 8263 ft 167 kts 76°
2026-04-25 11:37 8.96929 38.77305 8063 ft 167 kts 77°
2026-04-25 11:38 8.97252 38.78414 7704 ft 156 kts 78°
2026-04-25 11:38 8.97537 38.79405 7619 ft 130 kts 73°
2026-04-25 11:38 8.97730 38.80059 7618 ft 67 kts 73°
2026-04-25 11:38 8.97836 38.80418 7615 ft 46 kts 73°
2026-04-25 11:39 8.97942 38.80633 7612 ft 29 kts 50°
2026-04-25 11:39 8.98004 38.80695 7613 ft 7 kts 43°
2026-04-25 11:39 8.98035 38.80724 7614 ft 6 kts 43°
2026-04-25 11:39 8.98065 38.80745 7614 ft 5 kts 22°
2026-04-25 11:40 8.98107 38.80732 7615 ft 9 kts 309°
2026-04-25 11:40 8.98106 38.80659 7616 ft 13 kts 252°
2026-04-25 11:40 8.98074 38.80549 7617 ft 19 kts 254°
2026-04-25 11:40 8.98034 38.80408 7619 ft 21 kts 253°
2026-04-25 11:41 8.97991 38.80268 7621 ft 20 kts 253°
2026-04-25 11:41 8.97986 38.80175 7620 ft 9 kts 323°
2026-04-25 11:41 8.98035 38.80161 7619 ft 7 kts 347°
2026-04-25 11:41 8.98089 38.80148 7618 ft 9 kts 346°
2026-04-25 11:42 8.98155 38.80131 7618 ft 10 kts 345°
2026-04-25 11:42 8.98226 38.80111 7617 ft 11 kts 343°
2026-04-25 11:42 8.98295 38.80085 7617 ft 8 kts 310°
2026-04-25 11:42 8.98288 38.80034 7617 ft 7 kts 247°
2026-04-25 11:43 8.98281 38.80004 7617 ft 2 kts 282°
2026-04-25 11:43 8.98286 38.79999 7617 ft 1 kts 311°
2026-04-25 11:43 8.98290 38.79995 7617 ft 1 kts 320°
2026-04-25 11:43 8.98302 38.79987 7617 ft 3 kts 329°
2026-04-25 11:44 8.98323 38.79978 7617 ft 3 kts 339°
2026-04-25 11:44 8.98330 38.79975 7617 ft 0 kts 339°